Wind_Speed
18 18 18 18 18 18 17 16 14 12 10 10 10 10 9 9 8 8 8 7 5 7 9 10 11 10 9 8 9 11 13 15 16 16 17 19 20 21 22 23 23 20
19 19 19 19 19 18 17 16 15 13 12 11 10 10 10 9 8 7 8 9 8 9 11 13 13 13 12 12 12 13 15 15 16 17 18 19 20 21 22 23 24 23
19 20 20 20 19 18 17 16 15 15 13 12 12 11 10 9 8 7 9 10 10 11 13 15 16 16 16 15 15 16 17 18 18 19 19 19 20 21 22 23 24 23
20 21 21 20 20 19 18 17 16 15 14 13 12 11 11 11 9 8 9 11 12 12 14 16 18 18 18 18 19 19 19 20 20 20 20 20 21 22 22 24 24 24
21 21 21 21 21 20 19 18 16 15 14 13 12 12 12 13 12 10 10 12 12 13 15 17 19 20 20 20 21 22 22 22 22 22 22 22 22 23 23 23 24 24
22 22 22 22 22 21 19 18 17 16 15 14 14 13 13 14 13 13 13 14 14 14 16 18 20 21 22 22 23 24 25 24 24 24 24 24 24 24 24 24 23 24
22 22 23 23 22 21 20 19 18 17 16 16 16 14 13 14 14 14 15 15 16 16 17 19 21 22 23 24 24 25 27 27 27 27 26 26 26 25 24 24 24 24
22 23 23 23 23 22 21 19 18 17 17 17 17 15 14 14 14 14 15 15 16 17 18 20 21 23 24 26 26 27 28 29 29 29 29 28 27 26 26 25 25 25
23 23 23 23 24 22 20 20 19 18 18 17 16 15 15 14 14 14 14 15 16 17 18 19 21 23 25 26 28 29 29 30 31 31 31 30 28 28 28 27 26 25
23 23 23 23 23 22 20 20 20 19 18 16 15 15 15 14 14 14 15 16 17 17 18 20 22 24 25 27 28 30 30 31 32 32 32 31 29 29 29 28 27 26
23 23 23 23 22 22 21 20 20 19 18 16 15 14 14 14 14 14 15 16 16 18 19 21 22 24 26 27 28 30 31 32 32 33 32 32 30 29 29 29 29 27
23 23 22 22 22 21 20 20 19 18 17 15 15 15 15 14 15 14 15 16 17 18 20 21 23 24 25 27 28 30 31 32 31 31 31 32 31 30 30 30 30 28
23 22 21 21 22 21 20 20 19 18 17 16 15 16 16 15 15 15 15 17 18 20 21 22 24 25 27 28 28 28 29 31 30 29 30 31 30 30 31 31 30 28
22 21 21 21 22 22 22 20 19 18 17 17 17 17 16 16 16 16 17 18 20 21 21 23 25 27 28 30 29 28 29 30 30 29 29 29 29 30 32 32 30 28
22 21 21 22 22 23 23 21 20 19 19 18 17 17 16 17 17 17 17 18 19 21 22 23 26 28 30 31 31 30 29 29 30 30 29 28 29 30 30 31 30 29
23 23 22 23 23 23 22 22 21 20 20 19 17 16 17 18 18 18 17 18 19 21 22 24 25 27 29 31 30 28 25 25 27 28 27 27 28 29 28 29 30 30
25 24 24 24 24 23 22 22 21 21 21 20 18 17 16 18 18 18 17 18 19 21 22 23 23 25 29 31 29 25 20 20 23 25 25 27 28 27 27 28 30 32
27 25 25 25 25 24 23 22 22 22 22 21 19 17 17 18 18 18 19 19 20 21 20 20 22 25 29 30 28 25 21 20 23 25 25 26 27 26 25 27 30 32
28 27 26 26 26 25 24 23 23 23 22 20 19 19 18 19 19 20 21 21 21 20 19 20 23 26 28 29 28 27 24 22 24 25 24 26 25 24 25 27 29 31
29 29 28 28 27 26 25 24 24 22 22 21 20 20 20 20 20 21 22 22 21 20 20 21 24 25 26 28 28 26 24 22 24 25 25 25 24 23 25 27 29 31
30 31 31 31 30 28 27 25 24 23 22 22 21 21 21 20 21 22 22 21 21 21 22 23 24 25 27 27 27 24 21 21 23 25 24 24 24 23 24 26 29 32
31 33 33 32 31 30 28 26 25 24 23 23 22 22 21 21 22 22 20 20 21 23 25 24 24 25 27 27 25 23 21 21 23 22 22 23 24 23 23 25 29 30
32 33 33 33 33 32 30 28 27 26 24 23 23 23 22 21 21 20 19 20 23 24 25 24 24 25 27 27 24 22 22 22 21 21 23 25 25 24 24 26 27 24
33 33 34 33 33 33 31 30 29 26 25 24 23 22 21 21 20 19 20 21 23 25 25 25 26 27 27 27 24 22 22 22 21 23 26 26 25 25 25 25 23 21
33 33 34 34 33 33 32 31 28 26 25 25 23 22 21 21 20 20 20 21 23 24 24 26 27 28 28 27 24 23 23 23 23 25 25 24 23 24 23 22 21 20
34 34 34 34 33 33 33 31 28 27 27 25 24 23 22 22 21 20 20 20 21 23 25 27 28 29 28 27 24 23 23 24 24 24 22 20 19 20 21 21 20 19
Wind_Direction
230 230 231 229 226 223 220 219 219 216 212 211 210 212 214 212 212 209 218 239 251 247 253 261 268 278 285 288 296 303 315 330 339 346 350 351 353 355 358 359 357 350
228 228 230 228 225 222 219 216 217 218 217 216 217 219 220 222 224 220 225 243 254 253 257 263 268 276 282 283 285 290 302 317 328 336 342 345 344 345 347 349 352 352
226 227 229 228 225 222 220 217 216 218 219 219 222 226 231 236 240 238 238 247 256 258 262 268 271 277 282 284 285 289 298 308 317 324 331 335 336 337 340 343 346 351
224 225 227 228 225 222 222 221 220 220 223 225 227 230 238 247 254 257 255 256 261 263 265 270 274 278 282 285 288 291 296 303 308 313 319 324 328 330 334 338 340 345
223 224 226 227 225 223 223 224 224 224 228 232 235 236 240 250 260 268 270 271 272 271 271 273 277 281 283 285 289 292 295 298 301 306 310 315 320 324 327 332 335 339
222 222 224 226 225 225 225 227 228 229 233 238 243 245 246 252 262 269 275 278 280 280 278 277 279 282 284 285 287 290 292 294 296 299 304 309 313 317 321 324 329 333
222 222 223 224 225 226 227 230 233 233 236 241 247 253 254 258 264 269 275 280 282 284 283 282 282 283 285 286 287 289 291 292 293 295 299 303 306 311 315 317 322 326
222 222 223 225 226 227 227 231 236 238 240 243 248 255 260 265 269 273 277 281 283 285 285 285 285 285 286 288 289 290 291 292 293 294 295 298 301 306 310 312 315 319
221 222 224 226 227 228 228 230 236 241 244 246 250 255 261 266 271 275 278 281 283 285 287 287 288 288 288 290 292 291 292 293 293 293 293 295 298 302 305 308 309 313
221 223 224 226 228 229 229 231 235 241 245 249 252 254 259 264 269 274 277 280 285 289 292 291 290 290 289 290 292 292 293 294 293 293 293 293 295 299 302 305 306 306
222 224 224 226 229 230 230 232 234 239 244 249 252 253 255 259 264 270 276 282 288 292 293 292 291 290 289 290 291 292 293 293 293 293 294 293 293 295 298 301 302 300
223 225 225 227 229 230 231 233 235 239 242 245 249 253 255 258 263 270 278 284 289 291 292 292 292 291 290 288 288 289 290 290 290 291 292 292 291 292 294 297 297 294
225 226 226 228 230 231 232 233 236 239 241 242 244 250 256 262 269 275 282 286 287 289 292 294 293 292 292 289 286 286 287 286 286 288 290 289 287 288 292 292 291 288
225 225 226 227 229 232 233 234 236 238 240 241 242 247 257 265 272 278 283 287 288 290 292 294 295 295 296 293 289 288 288 287 288 289 290 285 280 283 287 287 285 283
222 223 224 225 226 228 231 232 233 237 241 244 246 250 257 263 271 277 283 286 289 291 293 295 297 299 300 298 294 291 289 288 287 287 286 282 278 281 284 281 280 279
220 222 222 222 223 224 227 229 231 235 241 247 251 255 258 263 270 276 282 286 289 292 295 297 299 303 305 302 298 294 290 286 285 284 282 280 278 281 281 277 276 276
218 221 222 222 223 224 224 227 230 234 239 245 251 256 260 266 272 276 279 283 285 290 295 298 302 307 308 306 302 296 289 283 282 281 279 277 277 278 279 276 275 277
218 221 223 222 224 225 225 227 230 234 239 244 249 256 263 269 272 274 277 279 283 289 293 296 302 308 309 308 303 296 289 279 274 274 276 276 276 277 277 274 274 276
218 221 224 224 225 226 225 227 230 234 239 244 250 257 263 267 270 272 275 280 285 288 290 294 302 307 308 306 301 295 291 283 276 274 273 273 273 272 271 271 273 273
217 220 224 225 226 227 226 227 230 234 239 244 250 256 261 264 267 271 277 283 287 287 289 297 304 307 305 303 298 294 291 285 279 276 273 272 272 266 263 267 269 269
217 218 222 224 226 228 227 227 230 234 238 243 249 255 258 260 265 271 277 282 286 289 293 300 305 305 302 299 295 291 288 283 280 280 281 282 278 269 263 263 265 267
218 217 220 223 225 227 227 228 230 233 237 243 248 251 254 259 265 270 273 278 285 290 294 299 303 301 298 295 291 286 281 279 280 283 285 285 281 275 268 263 264 268
220 219 219 221 223 225 226 227 229 232 236 240 245 249 254 260 263 264 269 277 286 291 293 296 300 298 294 291 289 283 278 278 280 281 279 277 275 272 269 266 266 269
221 220 219 221 222 223 225 226 228 232 236 239 242 247 253 256 256 257 266 278 286 290 292 293 294 294 292 290 287 281 278 279 278 274 272 270 267 266 267 267 266 269
222 221 221 221 222 222 224 226 228 231 235 236 240 246 250 251 251 257 269 280 286 289 291 291 290 291 291 289 285 280 278 278 274 270 269 267 264 265 267 265 265 269
223 221 221 222 222 222 224 226 229 231 233 235 238 243 245 246 250 261 273 281 287 290 290 289 287 288 289 287 284 281 279 278 276 274 273 270 267 266 263 260 264 268
Height
3182 3183 3185 3186 3187 3189 3190 3192 3193 3194 3196 3197 3198 3199 3200 3201 3201 3202 3203 3204 3205 3206 3206 3206 3206 3206 3207 3207 3207 3207 3207 3206 3206 3205 3205 3204 3204 3203 3202 3201 3200 3199
3180 3181 3182 3184 3185 3187 3188 3190 3192 3193 3194 3195 3197 3198 3198 3199 3200 3201 3202 3202 3203 3204 3204 3204 3204 3205 3205 3205 3205 3205 3205 3205 3204 3203 3203 3203 3202 3202 3201 3200 3199 3198
3178 3179 3180 3182 3184 3185 3187 3188 3190 3191 3192 3193 3195 3196 3197 3197 3198 3199 3200 3200 3201 3202 3203 3203 3203 3203 3203 3203 3203 3203 3203 3203 3202 3202 3201 3201 3200 3200 3200 3199 3198 3197
3175 3177 3179 3180 3182 3183 3185 3187 3188 3189 3190 3192 3193 3194 3195 3196 3197 3198 3198 3199 3200 3200 3201 3201 3201 3201 3201 3201 3200 3201 3201 3200 3200 3200 3199 3199 3199 3198 3198 3198 3197 3196
3173 3175 3177 3178 3180 3182 3183 3184 3186 3187 3188 3190 3191 3192 3193 3194 3195 3196 3196 3197 3198 3199 3199 3199 3199 3199 3199 3199 3198 3198 3198 3198 3198 3198 3198 3197 3197 3197 3196 3196 3195 3194
3171 3173 3174 3176 3178 3180 3181 3183 3184 3185 3186 3187 3189 3190 3191 3192 3193 3193 3194 3195 3196 3197 3197 3197 3197 3196 3196 3197 3196 3195 3195 3195 3195 3195 3195 3195 3195 3195 3194 3194 3194 3193
3168 3170 3172 3174 3176 3177 3179 3180 3182 3183 3184 3185 3186 3188 3189 3190 3191 3192 3192 3193 3194 3194 3195 3195 3195 3195 3194 3194 3194 3194 3193 3193 3193 3193 3193 3193 3193 3193 3192 3192 3192 3191
3166 3168 3170 3172 3173 3175 3177 3178 3179 3181 3182 3183 3184 3185 3187 3188 3189 3190 3190 3191 3191 3191 3192 3192 3192 3192 3192 3192 3192 3192 3191 3191 3191 3190 3190 3190 3190 3190 3190 3190 3189 3189
3164 3166 3168 3169 3171 3173 3175 3176 3177 3178 3179 3181 3182 3183 3184 3185 3186 3187 3188 3188 3188 3189 3189 3189 3189 3190 3190 3189 3189 3189 3189 3189 3188 3187 3187 3187 3187 3187 3187 3186 3186 3186
3162 3164 3165 3166 3168 3170 3172 3174 3175 3176 3177 3179 3180 3181 3182 3183 3184 3184 3185 3185 3185 3185 3186 3186 3186 3187 3187 3187 3186 3186 3186 3186 3185 3185 3184 3184 3184 3184 3184 3183 3183 3183
3159 3161 3162 3164 3166 3168 3170 3171 3173 3174 3175 3176 3177 3178 3179 3180 3181 3181 3182 3182 3183 3183 3183 3183 3183 3183 3183 3184 3183 3183 3183 3183 3182 3182 3182 3181 3181 3180 3180 3180 3180 3180
3157 3158 3160 3162 3164 3165 3167 3169 3170 3171 3173 3174 3175 3175 3176 3177 3178 3179 3179 3179 3180 3180 3180 3180 3180 3179 3179 3179 3180 3180 3179 3179 3179 3178 3178 3178 3178 3177 3177 3177 3177 3176
3154 3156 3158 3160 3161 3163 3164 3166 3167 3169 3170 3171 3172 3173 3173 3174 3175 3176 3176 3177 3177 3177 3177 3177 3176 3176 3175 3175 3175 3176 3176 3175 3174 3174 3174 3174 3174 3174 3173 3173 3173 3173
3152 3154 3156 3157 3159 3160 3162 3163 3164 3165 3167 3168 3169 3170 3171 3171 3172 3173 3173 3174 3174 3174 3174 3173 3172 3172 3171 3171 3172 3172 3172 3171 3170 3170 3170 3170 3170 3170 3170 3169 3169 3169
3149 3151 3153 3154 3156 3157 3159 3160 3162 3162 3163 3165 3166 3167 3168 3169 3170 3170 3171 3171 3171 3171 3171 3170 3169 3168 3168 3168 3168 3168 3168 3167 3167 3166 3166 3166 3166 3166 3165 3165 3166 3166
3147 3148 3150 3151 3153 3154 3156 3157 3159 3160 3160 3161 3162 3164 3165 3166 3167 3167 3168 3168 3168 3168 3167 3167 3166 3165 3164 3164 3164 3163 3163 3163 3162 3162 3162 3162 3162 3162 3161 3161 3162 3162
3144 3145 3146 3148 3149 3151 3153 3154 3155 3156 3157 3158 3159 3161 3162 3163 3163 3164 3165 3165 3165 3165 3165 3164 3163 3162 3161 3161 3160 3158 3159 3159 3158 3158 3158 3158 3158 3158 3157 3157 3158 3157
3140 3142 3143 3144 3146 3148 3150 3151 3152 3153 3154 3155 3156 3157 3159 3159 3160 3161 3162 3162 3163 3163 3162 3162 3161 3160 3158 3157 3156 3155 3154 3154 3154 3153 3153 3153 3153 3154 3154 3154 3154 3154
3136 3138 3139 3141 3143 3145 3146 3148 3149 3150 3151 3152 3153 3154 3155 3156 3157 3157 3158 3159 3159 3160 3160 3160 3159 3157 3156 3155 3153 3151 3151 3150 3149 3149 3149 3149 3150 3150 3151 3151 3151 3151
3133 3135 3136 3137 3139 3141 3143 3144 3146 3147 3148 3149 3150 3151 3152 3153 3153 3154 3154 3155 3156 3156 3156 3157 3156 3154 3153 3152 3150 3148 3147 3146 3146 3145 3145 3146 3146 3147 3147 3147 3148 3148
3128 3130 3132 3134 3136 3137 3139 3141 3142 3144 3145 3146 3147 3148 3149 3150 3150 3151 3151 3152 3152 3152 3152 3152 3152 3151 3149 3148 3147 3145 3144 3144 3143 3142 3142 3143 3143 3143 3144 3144 3144 3144
3123 3126 3128 3130 3132 3134 3136 3137 3139 3140 3141 3143 3144 3145 3146 3147 3148 3148 3148 3149 3149 3148 3148 3148 3148 3147 3146 3145 3143 3142 3141 3141 3140 3139 3139 3139 3139 3139 3140 3140 3140 3139
3118 3121 3124 3126 3128 3130 3132 3134 3135 3137 3138 3140 3141 3142 3143 3144 3145 3145 3146 3146 3146 3145 3145 3145 3144 3143 3142 3141 3140 3138 3137 3137 3137 3136 3135 3135 3135 3135 3136 3136 3136 3136
3114 3117 3120 3122 3124 3127 3129 3130 3132 3134 3135 3137 3138 3139 3140 3141 3142 3143 3143 3143 3143 3142 3141 3141 3140 3139 3138 3137 3135 3134 3133 3133 3133 3132 3132 3132 3131 3132 3132 3132 3132 3133
3110 3112 3115 3118 3120 3123 3125 3127 3129 3130 3132 3133 3134 3136 3137 3138 3139 3139 3140 3140 3140 3139 3138 3137 3136 3135 3134 3133 3132 3130 3129 3129 3129 3128 3128 3128 3128 3128 3129 3129 3129 3129
3105 3108 3111 3114 3117 3119 3121 3123 3125 3127 3128 3130 3131 3132 3133 3134 3135 3136 3136 3136 3136 3135 3135 3134 3133 3132 3130 3129 3128 3127 3126 3125 3125 3125 3124 3124 3124 3125 3126 3126 3126 3126